Regional Weather Roundup
Issued by NWS

Home | Current Version | Previous Version | Graphics & Text | Print | Product List | Glossary On
Versions: 1 2 3 4 5 6 7 8 9 10 11 12 13 14 15 16 17 18 19 20 21 22 23 24 25 26 27 28 29 30 31 32 33 34 35 36 37 38 39 40 41 42 43 44 45 46 47 48 49 50
000
ASUS43 KMKX 261421
RWRWI

WISCONSIN REGIONAL WEATHER ROUNDUP
NATIONAL WEATHER SERVICE MILWAUKEE/SULLIVAN WI
900 AM CDT MON SEP 26 2016

NOTE: "FAIR" INDICATES FEW OR NO CLOUDS BELOW 12,000 FEET WITH NO
SIGNIFICANT WEATHER AND/OR OBSTRUCTIONS TO VISIBILITY.

WIZ001-002-006>008-014>016-023>028-261500-
NORTHWEST WISCONSIN

CITY           SKY/WX    TMP DP  RH WIND       PRES   REMARKS
SUPERIOR ARPT  CLOUDY    51  44  78 W18G25    29.74S
ASHLAND        LGT RAIN  50  47  89 W17G28    29.69S
HAYWARD        CLOUDY    50  44  80 W10G20    29.77S
SIREN          SUNNY     52  40  64 W17G23    29.84S
CUMBERLAND     MOSUNNY   50  39  66 W22G29    29.85R
RICE LAKE      SUNNY     53  40  61 W18G24    29.86S
CHETEK         NOT AVBL
LADYSMITH      CLOUDY    53  44  71 W17G24    29.82R
EAU CLAIRE     SUNNY     54  42  64 W17G24    29.87S
MENOMONIE      SUNNY     55  42  62 W17       29.89F
NEW RICHMOND   MOSUNNY   53  40  62 W14G23    29.90S HAZE
OSCEOLA        MOSUNNY   53  40  62 W14G23    29.92F
$$

WIZ003>005-009-010-017-018-261500-
NORTH CENTRAL WISCONSIN

CITY           SKY/WX    TMP DP  RH WIND       PRES   REMARKS
MANITOWISH WTR NOT AVBL
ARBOR VITAE    DRIZZLE   49  48  94 W13       29.71S
WOODRUFF       DRIZZLE   49  48  94 W13       29.71S
RHINELANDER    LGT RAIN  49  48  97 W15       29.74S
EAGLE RIVER    DRIZZLE   48  47  95 W17       29.69S
LAND O LAKES   DRIZZLE   49  47  93 W9G17     29.69S
PHILLIPS       CLOUDY    48  46  91 SW10G18   29.75S
TOMAHAWK       CLOUDY    48  45  89 W10G18    29.77S
MEDFORD        CLOUDY    50  45  83 W17G24    29.80S
MERRILL        CLOUDY    51  45  79 W20G25    29.78S
$$

WIZ029-030-035-036-043>047-261500-
CENTRAL WISCONSIN

CITY           SKY/WX    TMP DP  RH WIND       PRES   REMARKS
WAUSAU         CLOUDY    52  43  71 W18G28    29.79S
MOSINEE        PTSUNNY   52  45  76 W15G24    29.82F
MARSHFIELD     MOSUNNY   54  42  64 W15G25    29.84S
STEVENS POINT  MOSUNNY   52  42  69 W16G26    29.84S
WAUPACA        SUNNY     58  46  64 W16       29.84F
WAUTOMA        SUNNY     56  45  66 SW18G25   29.87F
WISC RAPIDS    MOSUNNY   55  45  68 W15G22    29.88S
CAMP DOUGLAS   MOSUNNY   54  45  71 W18G25    29.91S
$$

WIZ011>013-019>022-031-037>040-048>050-261500-
NORTHEAST WISCONSIN

CITY           SKY/WX    TMP DP  RH WIND       PRES   REMARKS
ANTIGO         CLOUDY    49  45  87 W15       29.76F
SHAWANO        CLOUDY    55  46  69 W12G18    29.79S
OCONTO         NOT AVBL
STURGEON BAY   PTSUNNY   56  46  69 W21G30    29.76F
GREEN BAY      PTSUNNY   56  47  71 W17G26    29.81S
MANITOWOC      SUNNY     58  45  62 MISG      29.83F
APPLETON       MOSUNNY   55  43  62 W15G25    29.83F
CLINTONVILLE   NOT AVBL
OSHKOSH        SUNNY     56  44  64 W13G23    29.85F
$$

WIZ032>034-041-042-053>061-261500-
SOUTHWEST WISCONSIN

CITY           SKY/WX    TMP DP  RH WIND       PRES   REMARKS
LA CROSSE      MOSUNNY   57  43  59 W15G25    29.95S
SPARTA         SUNNY     54  44  67 W7G16     29.94S
VIROQUA        PTSUNNY   53  41  63 W12G18    29.96S
BOSCOBEL       SUNNY     57  44  62 SW8       29.99F
PRAIRIE DU CHI SUNNY     56  40  54 W13G18    30.01S
PLATTEVILLE    SUNNY     56  45  68 W17       30.02S
$$

WIZ056-057-062-063-064-067-068-261500-
SOUTH CENTRAL WISCONSIN

CITY           SKY/WX    TMP DP  RH WIND       PRES   REMARKS
REEDSBURG      NOT AVBL
BARABOO/DELLS  SUNNY     55  42  61 W15       29.93F
LONE ROCK      SUNNY     56  44  64 W12G23    29.98S
MINERAL POINT  SUNNY     54  45  71 W12       30.00S
MADISON        SUNNY     55  44  66 VRB5      29.95S
MIDDLETON      NOT AVBL
WATERTOWN      SUNNY     55  47  74 SW15      29.94S
MONROE         SUNNY     54  43  66 W16G23    30.00R
JANESVILLE     SUNNY     57  46  67 W12G17    29.98S
$$

WIZ051-052-058>065-066-070>072-261500-
SOUTHEAST WISCONSIN

CITY           SKY/WX    TMP DP  RH WIND       PRES   REMARKS
MILWAUKEE      MOSUNNY   60  45  57 W14G25    29.93F
WAUKESHA       SUNNY     55  45  67 W17G23    29.94F
MILWAUKEE/TIMM SUNNY     57  45  62 W17G24    29.92F
RACINE         SUNNY     59  47  64 W13       29.95F
BURLINGTON     SUNNY     56  45  65 W10G18    29.96S
KENOSHA        SUNNY     58  47  66 W15G22    29.95F
FOND DU LAC    SUNNY     57  45  64 W13G22    29.89S
SHEBOYGAN      SUNNY     57  45  64 W18G26    29.86F
WEST BEND      MOSUNNY   55  45  67 W16G25    29.90S
JUNEAU         SUNNY     55  46  72 SW16G23   29.93S
$$

LSZ147-162-261500-
LAKE SUPERIOR

STATION/POSITION TIME  TEMP    WIND        PRES    WAVE
                       AIR SEA DIR/SP/G            HT/PER
                 (UTC) (F)     (DEG/KT/KT) (MB)    (FT/S)
W MID LAKE BUOY  1350   54 57  250/ 27/ 33  999.2S   7/ 7
DEVILS ISLAND    1400   54     260/ 29/ 35 1002.7R
SAXON HARBOR     1300   52     230/  7/ 17 1004.7S
$$

LMZ867-665-643>646-261500-
LAKE MICHIGAN

STATION/POSITION TIME  TEMP    WIND        PRES    WAVE
                       AIR SEA DIR/SP/G            HT/PER
                 (UTC) (F)     (DEG/KT/KT) (MB)    (FT/S)
CHAMBERS ISLAND  1300   55     210/ 12/ 24 1007.1F
S GREEN BAY BUOY 1130   57 65  230/ 21/ 27 1008.7
N MID LAKE BUOY  1350   57 67  240/ 25/ 29 1005.6F   6/ 6
NORTHPORT PIER   1300   54     250/  6/ 20 1007.1
KEWAUNEE LAKESHO 1400   57     250/ 17/ 24 1008.5F
SHEBOYGAN LAKESH 1400   57     270/ 18/ 22 1010.8F
PORT WASHINGTON  1340   60     260/ 11/ 20 1012.9F
ATWATER BUOY     1400   58 54  250/ 16/ 19 1012.9F
MILWAUKEE LAKESH 1410   59     280/ 11/ 16   N/A
S MID LAKE BUOY  1350   62 71  260/ 21/ 25 1013.0R   5/ 5
KENOSHA   LAKESH 1400   58     260/ 14/ 19 1014.2F
$$

TC  - TEMPERATURE IN CELSIUS
VSB - VISIBILITY IN STATUTE MILES
WCI - WIND CHILL INDEX
HX  - HEAT INDEX




USA.gov is the U.S. government's official web portal to all federal, state and local government web resources and services.